[Iaude] MPEC F09: 2024 EW4 [a=1.39,e=0.21,i=24.7,H=24.4]

mpec at cfa.harvard.edu mpec at cfa.harvard.edu
Sun Mar 17 09:57:52 EDT 2024


M.P.E.C. 2024-F09                                Issued 2024 March 17, 13:56 UT

     The Minor Planet Electronic Circulars contain information on unusual
         minor planets, routine data on comets and natural satellites,
         and occasional editorial announcements.  They are published
    on behalf of Division F of the International Astronomical Union by the
          Minor Planet Center, Smithsonian Astrophysical Observatory,
                          Cambridge, MA 02138, U.S.A.
			  
             Prepared using the Tamkin Foundation Computer Network

                              MPC at CFA.HARVARD.EDU
            URL https://www.minorplanetcenter.net/    ISSN 1523-6714

                                    2024 EW4                                    


Observations:
     K24E04W* C2024 03 14.33150111 41 49.870+08 49 08.33         21.10GVEF009V00
     K24E04W  C2024 03 14.33775211 41 47.756+08 48 34.20         22.07GVEF009V00
     K24E04W  C2024 03 14.34399111 41 45.625+08 48 00.14         21.41GVEF009V00
     K24E04W  C2024 03 14.35022011 41 43.526+08 47 26.16         21.59GVEF009V00
     K24E04W KC2024 03 14.39324811 41 28.940+08 43 29.90         21.74GVEF009V06
     K24E04W KC2024 03 14.39594711 41 28.080+08 43 15.20         21.97GVEF009V06
     K24E04W KC2024 03 14.39864611 41 27.120+08 43 00.60         22.71GVEF009V06
     K24E04W KC2024 03 14.40134811 41 26.240+08 42 45.40         22.00GVEF009V06
     K24E04W 7C2024 03 16.08038711 32 36.108+06 11 45.58         21.4 GVEF009Z84
     K24E04W 7C2024 03 16.09390911 32 31.821+06 10 33.29         22.3 GVEF009Z84
     K24E04W 7C2024 03 16.10747611 32 27.469+06 09 21.17         21.2 GVEF009Z84
     K24E04W  C2024 03 17.42024911 25 53.337+04 14 57.74         21.70wXEF009F51
     K24E04W  C2024 03 17.43241811 25 49.566+04 13 55.30         21.65wXEF009F51
     K24E04W  C2024 03 17.44456811 25 45.778+04 12 52.35         21.31wXEF009F51

Observer details:
F51 Pan-STARRS 1, Haleakala.  Observers J. Herman, T. Lowe, P. Minguez, A.
    Schultz, I. Smith.  Measurers K. Chambers, T. de Boer, J. Fairlamb, H.
    Gao, M. Huber, C.-C. Lin, E. Magnier, Y. Ramanjooloo, R. Wainscoat, R.
    Weryk.  1.8-m Ritchey-Chretien + CCD.
V00 Kitt Peak-Bok.  Observer R. A. Mastaler.  Measurers M. J. Brucker, C. E.
    Woodward, T. Beuden, V. F. Carvajal, D. Fay, J. B. Fazekas, D. C. Fuls, A.
    R. Gibbs, H. Groeller, J. K. Hogan, R. A. Kowalski, S. M. Larson, C.
    Lejoly, G. J. Leonard, R. A. Mastaler, R. S. McMillan, D. Rankin, R. L.
    Seaman, F. C. Shelly, K. W. Wierzchos.  2.25-m reflector + 4x4K mosaic
    CCD.
V06 Catalina Sky Survey-Kuiper.  Observer G. J. Leonard.  Measurers T. Beuden,
    V. F. Carvajal, D. Fay, J. B. Fazekas, D. C. Fuls, A. R. Gibbs, A. D.
    Grauer, H. Groeller, J. K. Hogan, R. A. Kowalski, S. M. Larson, G. J.
    Leonard, D. Rankin, R. L. Seaman, F. C. Shelly, K. W. Wierzchos.  1.55-m
    reflector + 1K CCD.
Z84 Calar Alto-Schmidt.  Observers F. Ocana, R. Kresken, M. Micheli, L.
    Conversi.  Measurers F. Ocana, M. Micheli.  0.8-m f/3 Schmidt + CCD.

Orbital elements:
2024 EW4                                                 Earth MOID = 0.2035 AU
Epoch 2024 Mar. 31.0 TT = JDT 2460400.5                 MPC                     
M  50.83733              (2000.0)            P               Q                  
n   0.59948763     Peri.  117.16975     -0.39935602     -0.91633418             
a   1.3929940      Node   356.01387     +0.62053862     -0.24681031             
e   0.2112738      Incl.   24.74144     +0.67486783     -0.31530358             
P   1.64           H   24.46          G   0.15           U   9                  
Residuals in seconds of arc
240314 V00  0.0   0.1-    240314 V06  0.4+  0.0     240316 Z84  0.0   0.0
240314 V00  0.1+  0.0     240314 V06  0.3-  0.2+    240317 F51  0.0   0.1-
240314 V00  0.1-  0.0     240314 V06  0.1+  0.2-    240317 F51  0.1+  0.2+
240314 V00  0.0   0.2+    240316 Z84  0.3-  0.1+    240317 F51  0.1-  0.1-
240314 V06  0.3-  0.1-    240316 Z84  0.3+  0.2-

Ephemeris:
2024 EW4                 a,e,i = 1.39, 0.21, 25                  q = 1.0987
Date    TT    R. A. (2000) Decl.     Delta      r    Elong.  Phase     V
2024 02 16    14 10 11.3 +40 19 22   0.2698  1.1397   118.0    49.9    23.8
...
2024 03 02    12 54 38.2 +26 55 45   0.2139  1.1725   144.9    29.1    22.7
...
2024 03 10    12 06 24.4 +15 29 43   0.2060  1.1927   164.2    13.1    22.2
...
2024 03 16    11 33 02.2 +06 19 19   0.2149  1.2089   174.7     4.3    21.9
2024 03 17    11 27 58.3 +04 51 31   0.2177  1.2117   174.0     4.9    22.0
2024 03 18    11 23 04.4 +03 25 46   0.2207  1.2145   172.6     6.1    22.1
...
2024 03 24    10 57 26.3 -04 15 00   0.2456  1.2317   160.9    15.3    22.7
...
2024 04 01    10 33 14.4 -11 51 37   0.2925  1.2555   147.3    25.4    23.5
...
2024 04 16    10 12 49.0 -20 03 41   0.4060  1.3017   129.9    36.3    24.6

A. U. Tomatic                (C) Copyright 2024 MPC           M.P.E.C. 2024-F09





More information about the Iaude mailing list